Wind_Speed
14 7 7 10 8 9 11 17 24 25 25 26 25 20 16 14 10 8 11 13 10 7 11 11 10 9 7 5 5 7 9 10 10 9 5 4 9 14 13 11 11 12 14 16 18 20 21 22 24 26 28 29 30 31 32 32 33 33 34 36 38 39 40 44 48 48 46 47 47 47 46 46 46 46 45 43 41 40 39 41 41 41 39 39 41 43 42
15 11 8 9 8 6 7 12 18 23 25 25 24 22 20 17 13 9 10 15 14 9 9 12 11 6 4 4 3 0 2 4 3 4 1 2 5 12 15 14 11 9 10 12 15 18 20 21 23 25 26 27 29 29 30 31 33 33 33 36 38 38 40 44 48 47 45 45 47 47 47 46 46 46 45 44 43 42 41 40 40 40 39 36 36 40 43
13 12 10 8 8 7 7 8 10 15 22 25 23 22 20 17 16 13 11 11 12 10 8 6 5 4 2 2 2 2 2 3 4 3 4 4 2 3 8 11 10 9 9 8 8 11 14 16 19 24 26 26 26 27 28 30 32 32 32 34 37 39 40 42 44 45 46 47 47 47 47 46 47 47 46 45 46 45 43 41 39 39 40 38 36 36 39
10 12 12 9 9 8 9 10 9 11 14 16 17 17 16 15 15 15 13 9 7 6 4 2 1 0 2 4 5 6 7 7 6 6 7 6 4 4 4 4 4 6 8 8 7 8 10 12 15 20 24 26 26 27 27 28 29 31 33 34 36 39 39 38 40 43 46 48 47 47 48 46 47 47 46 47 47 46 46 44 42 42 42 42 40 37 36
9 15 14 11 9 9 10 11 12 10 9 10 12 10 10 11 10 9 9 7 5 5 5 5 5 5 7 7 7 8 9 8 7 7 8 7 6 6 6 7 6 4 5 6 6 6 9 11 13 15 19 24 26 27 26 26 27 29 33 34 35 37 38 38 40 43 45 46 47 47 48 46 46 45 46 46 47 46 46 45 44 45 45 45 45 42 40
10 12 10 9 12 11 9 8 10 13 13 12 12 11 11 11 10 8 7 6 5 6 7 8 8 7 6 5 5 6 6 6 7 8 8 8 8 8 8 9 8 6 5 4 5 6 7 9 11 13 17 20 23 23 24 26 28 30 32 33 34 36 38 39 40 43 45 45 45 45 46 45 45 45 45 45 45 45 46 45 45 46 47 46 46 46 44
8 8 8 9 13 11 8 7 9 13 15 16 16 15 15 14 13 13 12 10 8 7 6 5 4 4 4 4 5 5 6 8 9 11 11 10 10 10 8 7 5 4 5 5 6 7 7 8 8 10 14 16 19 21 23 26 29 31 33 33 34 36 39 40 41 43 45 45 43 43 44 43 43 43 43 43 43 43 44 44 45 46 46 46 46 46 46
6 6 8 9 5 4 7 8 4 5 10 15 16 17 16 16 14 13 13 12 10 8 7 5 2 2 4 5 5 7 10 13 15 16 16 13 12 10 7 6 6 9 13 13 12 11 12 10 8 9 11 14 16 20 23 26 29 31 33 34 35 36 39 41 42 43 44 43 43 43 43 42 42 41 41 42 42 42 42 42 42 43 45 45 45 45 46
6 5 8 8 3 2 7 9 5 4 8 11 11 11 12 13 12 8 6 5 4 3 4 4 2 4 5 5 8 12 14 14 14 16 16 12 9 8 7 8 10 13 16 16 14 15 16 14 11 10 11 12 15 19 21 24 27 29 32 35 38 38 39 41 41 42 43 43 43 43 43 42 42 41 41 41 41 41 42 42 41 41 42 43 42 44 45
7 7 9 9 8 7 8 9 8 5 4 5 7 7 8 9 8 4 2 4 4 5 6 5 3 3 5 7 8 8 8 10 12 11 7 6 8 8 8 10 11 10 11 14 16 16 17 16 14 12 12 12 15 18 21 23 25 29 32 35 38 39 39 39 39 40 41 42 42 42 42 42 41 41 41 41 40 40 41 41 40 38 37 37 38 40 42
9 10 9 10 10 8 5 8 11 8 4 3 5 7 7 5 4 3 3 6 6 5 6 4 2 3 7 8 3 7 12 12 13 13 11 9 9 9 9 10 10 12 15 18 17 15 14 13 12 13 15 15 15 18 21 23 24 29 33 34 35 37 37 37 38 39 39 40 41 41 41 41 41 40 40 40 39 39 40 40 38 35 33 33 34 36 37
10 10 9 9 7 2 2 4 7 8 7 6 7 9 6 4 5 4 0 3 2 2 4 3 3 6 7 5 5 10 13 12 11 11 10 10 10 10 9 9 12 15 16 15 11 8 9 10 10 10 12 15 17 17 20 22 24 27 30 30 30 32 33 33 35 38 38 38 39 40 40 39 39 39 38 38 37 37 37 36 34 34 33 32 32 32 33
11 11 10 9 7 2 3 5 7 6 5 6 7 6 1 5 5 4 3 3 3 4 5 4 3 5 8 10 12 12 12 11 10 10 10 9 10 10 9 11 14 14 11 9 7 6 9 14 13 9 9 13 16 17 18 21 23 23 23 25 26 28 30 31 32 35 37 37 37 38 37 36 36 37 36 36 36 36 34 31 30 32 33 32 31 31 31
10 11 9 9 8 0 4 3 7 6 4 5 2 4 7 6 3 5 6 6 6 7 6 5 6 8 12 15 14 12 11 11 11 11 10 10 10 9 9 11 12 9 7 7 7 6 7 8 7 6 9 11 13 16 17 19 20 18 18 21 24 26 27 29 29 30 32 34 34 35 35 34 34 35 34 33 33 33 31 29 29 30 31 31 31 31 30
8 10 11 11 7 3 11 5 2 3 2 1 6 11 10 6 4 7 7 6 8 8 9 8 8 10 12 13 12 11 11 11 11 11 11 10 9 9 8 9 8 7 6 6 6 6 6 5 3 3 6 10 12 12 14 15 15 16 16 17 20 23 25 26 27 26 27 30 32 33 33 33 32 33 32 31 30 29 29 29 28 28 29 30 29 29 30
7 10 9 5 1 5 10 6 3 5 7 6 9 12 10 7 9 10 8 7 8 8 10 11 10 10 11 11 10 11 11 11 11 11 10 10 9 8 7 7 7 6 6 5 5 5 7 7 7 4 2 7 9 8 9 12 11 13 16 16 16 19 21 22 24 23 23 25 27 28 28 29 29 28 29 28 27 28 28 28 27 27 28 27 27 28 29
5 6 5 5 7 6 6 5 7 9 9 8 10 12 11 12 14 14 13 12 11 11 11 11 11 10 10 10 11 11 11 11 11 11 10 10 9 8 7 7 6 5 4 5 4 3 6 5 5 7 6 5 7 7 9 13 12 11 13 14 14 16 17 18 20 20 19 20 22 22 22 23 24 25 25 25 26 26 26 25 24 26 27 26 26 28 28
7 10 10 9 7 5 4 5 8 11 12 10 10 11 12 13 15 16 15 15 15 14 13 12 11 11 10 11 11 11 10 10 10 10 10 9 9 8 8 7 6 4 3 3 3 2 4 6 1 6 7 6 5 5 5 8 10 12 12 11 11 13 14 14 15 17 17 17 18 19 19 19 20 21 21 22 23 23 23 23 23 24 24 24 25 27 28
5 7 8 8 7 7 8 8 10 11 10 11 12 11 12 14 16 17 16 15 15 15 12 11 11 10 10 10 10 11 10 10 9 9 9 8 8 8 8 7 5 4 3 2 3 2 3 5 4 2 3 3 1 2 1 2 6 11 12 11 10 11 11 11 11 13 15 15 15 16 16 16 16 17 18 19 20 21 21 21 22 23 23 24 25 26 27
8 9 11 12 14 16 14 13 14 13 9 10 12 12 13 14 16 17 16 14 14 13 12 10 9 9 9 8 8 9 9 8 8 8 7 7 7 6 6 6 4 3 2 2 2 3 3 3 4 3 3 3 2 1 1 1 2 6 8 8 8 8 8 8 9 10 12 13 13 13 13 14 14 15 16 17 18 19 20 20 21 22 23 24 25 25 25
9 10 12 15 16 16 16 17 17 13 9 10 12 14 14 14 14 15 16 14 12 12 11 9 8 8 7 5 5 6 6 6 7 7 6 6 6 6 6 5 3 2 1 2 2 3 3 3 4 5 5 4 4 3 2 2 4 4 5 5 6 6 6 7 8 8 8 10 11 11 12 13 14 15 16 16 17 17 17 18 20 21 21 22 23 23 22
9 9 11 12 11 10 12 14 12 10 9 10 13 14 14 13 13 14 15 16 14 11 9 8 7 6 5 4 4 4 4 4 5 5 5 4 4 4 4 4 4 2 2 2 2 2 3 4 5 6 6 6 6 6 6 5 5 5 5 6 6 5 5 6 7 7 7 7 9 10 10 10 12 13 14 15 17 18 16 17 19 21 23 24 24 24 24
10 11 12 11 9 10 13 15 14 12 12 13 14 15 14 14 14 13 14 16 15 11 10 9 8 6 4 2 3 2 1 2 2 3 3 3 3 3 3 4 5 5 4 5 4 4 3 5 6 6 7 8 8 8 8 7 7 6 6 7 6 5 5 8 10 10 8 6 7 9 11 10 10 12 12 13 16 19 20 19 20 21 23 25 26 27 28
14 16 16 15 14 16 19 20 19 16 14 15 16 16 15 15 15 15 14 15 16 13 11 10 9 8 5 3 2 0 2 3 3 3 3 3 3 4 3 4 4 3 4 5 6 6 6 6 7 8 8 8 9 10 11 10 8 8 7 7 6 5 5 10 13 12 10 8 8 9 11 11 11 13 14 12 10 13 18 22 24 25 26 27 28 29 31
18 18 18 18 18 20 22 22 22 20 18 18 18 18 19 19 19 17 16 16 16 14 12 10 9 7 6 5 4 3 4 4 4 5 5 5 5 6 5 5 5 5 5 6 6 7 7 8 9 9 10 10 10 11 11 11 10 9 9 8 7 6 5 6 9 9 8 7 7 6 6 7 8 9 10 9 7 6 9 13 15 18 20 21 22 24 26
19 20 20 21 23 25 25 24 23 22 20 20 20 20 21 21 20 19 19 18 17 14 11 10 9 7 5 5 5 5 5 5 5 6 7 8 8 7 7 7 8 8 8 8 8 8 7 8 9 10 10 11 10 11 11 11 10 10 10 9 8 8 8 7 7 8 7 7 7 7 7 6 5 5 5 5 5 3 1 1 1 2 3 3 4 6 9
22 22 22 21 23 26 28 27 26 24 21 20 19 19 19 18 17 18 18 18 18 16 12 9 8 7 4 3 5 6 6 7 8 7 8 9 9 8 8 8 9 9 9 9 9 9 9 9 9 8 9 10 11 11 10 10 10 10 11 11 10 11 12 12 11 10 11 11 11 10 10 10 9 7 6 7 6 4 4 4 3 3 3 3 3 3 4
26 25 24 23 23 25 26 26 27 26 24 23 22 20 19 18 17 18 18 16 16 15 11 8 7 6 4 3 4 6 7 8 9 9 9 9 9 8 9 10 10 10 10 10 10 10 11 11 10 9 8 10 12 12 10 9 9 9 9 9 9 9 10 11 10 11 13 13 12 13 13 13 11 9 8 7 5 4 4 4 4 4 3 3 5 6 7
31 29 27 27 27 28 27 27 27 26 25 24 23 21 18 17 17 18 18 17 16 15 12 9 7 6 4 2 3 6 8 9 10 9 9 9 9 9 10 11 11 11 11 11 10 10 10 10 11 11 9 9 12 14 11 8 8 8 8 7 7 7 7 7 7 9 11 12 11 11 11 10 9 7 5 5 4 4 4 3 4 4 4 6 7 7 9
31 28 27 27 28 28 28 29 30 29 26 24 24 22 19 18 18 19 18 16 16 16 14 10 7 6 5 3 2 6 9 10 11 10 9 9 10 10 10 10 11 11 12 12 12 11 11 11 11 11 11 8 9 12 12 10 8 6 5 6 5 5 7 8 6 6 7 8 8 8 7 6 6 5 5 5 5 5 4 4 5 5 5 7 7 7 10
29 28 27 27 27 29 30 30 31 31 28 26 26 24 21 20 21 20 17 16 16 16 14 11 8 6 5 4 3 4 7 10 11 11 11 11 11 11 11 11 12 12 12 12 12 12 13 13 12 12 11 9 7 8 11 11 9 6 6 8 7 5 6 9 8 5 5 5 5 5 5 4 4 5 6 6 6 6 5 5 5 6 6 7 7 9 14
29 28 28 28 29 30 31 30 31 32 30 27 26 24 23 23 22 19 17 16 15 14 13 11 9 7 6 6 5 5 7 9 10 10 11 12 12 12 12 12 13 13 12 13 13 13 14 15 15 13 10 9 9 7 8 8 7 6 6 6 6 5 6 8 7 5 4 4 4 4 4 5 5 5 5 6 6 6 6 6 6 7 8 8 8 10 13
23 22 24 26 27 28 29 30 29 29 28 27 25 23 22 22 20 19 18 17 15 13 13 12 9 8 7 7 8 8 9 9 9 10 11 12 12 11 12 12 13 13 13 13 13 12 13 15 16 14 10 9 9 8 8 7 7 6 5 5 4 4 5 7 7 6 5 5 4 4 4 5 5 5 5 6 6 6 7 8 8 8 9 10 10 11 11
24 24 25 27 28 27 28 28 27 26 25 24 23 21 20 21 20 19 19 17 16 15 14 13 12 11 11 11 11 10 9 10 10 10 11 12 12 12 13 13 14 15 15 14 13 13 13 15 15 14 13 11 10 10 11 11 9 7 6 6 5 4 4 4 6 7 6 5 5 5 5 5 5 5 5 5 6 7 8 8 9 9 10 11 11 12 13
15 18 20 21 21 20 21 21 21 21 20 19 19 20 21 20 20 21 21 19 18 17 16 16 15 13 13 14 14 12 12 12 12 11 11 12 13 13 14 15 15 15 15 16 15 14 13 15 16 15 14 13 12 12 14 14 11 9 8 8 8 7 6 5 5 6 6 5 6 6 6 6 6 6 6 6 6 7 8 9 9 9 10 11 12 13 14
12 6 2 2 6 11 15 17 18 17 16 14 14 17 19 19 20 21 21 20 19 20 20 20 18 16 16 15 14 13 14 14 14 13 13 15 15 15 17 18 17 16 17 18 17 15 13 15 17 16 14 14 14 14 15 15 12 10 10 10 9 8 8 8 8 8 7 7 7 7 6 7 7 7 7 8 8 8 9 9 9 9 9 10 11 12 13
32 27 21 16 13 10 8 8 9 9 9 9 8 8 12 17 20 21 20 21 22 24 24 23 21 19 18 16 16 16 17 17 16 16 16 16 16 18 21 20 18 18 19 18 16 15 15 16 18 17 16 16 17 16 16 16 14 11 10 10 9 9 9 10 10 10 10 10 10 9 9 9 9 9 8 8 9 10 11 11 10 10 10 10 11 11 12
44 40 36 32 29 27 25 23 22 20 15 11 10 8 6 10 14 19 22 23 22 24 26 27 26 24 22 21 21 21 20 19 19 21 21 22 23 26 27 24 20 19 19 17 15 16 18 19 20 21 21 20 18 16 16 17 16 13 12 11 10 10 10 10 11 12 12 12 13 13 13 13 12 11 10 10 10 11 11 11 10 10 11 12 11 10 10
50 47 45 44 42 41 39 36 33 31 29 26 21 17 15 16 19 23 26 25 24 26 31 33 32 30 28 27 26 25 23 21 22 24 26 29 31 33 32 29 24 22 21 19 19 20 20 20 21 23 23 21 20 18 17 17 17 16 14 12 11 11 11 11 11 12 13 14 14 14 14 14 13 12 11 10 11 11 12 11 9 9 10 12 12 11 10
50 49 49 50 50 49 46 43 41 39 39 40 37 32 31 32 34 35 34 33 33 34 36 37 36 34 32 31 30 29 26 23 23 23 25 27 30 31 31 29 27 24 22 21 21 21 20 20 22 24 23 22 21 20 19 18 18 17 16 14 13 13 13 13 13 13 14 15 15 15 15 15 15 14 13 12 11 11 12 12 12 11 12 12 12 11 11
44 45 46 48 49 47 44 43 44 46 47 48 46 43 43 45 46 43 41 39 39 39 39 38 37 35 34 34 33 31 29 27 26 25 25 26 28 29 29 27 25 23 22 21 21 21 21 21 22 23 23 21 21 20 20 19 19 18 18 17 16 16 15 15 15 15 16 15 15 15 15 15 16 16 16 16 15 13 12 12 12 12 13 14 12 12 13
36 37 40 42 42 42 42 43 44 46 48 47 45 44 44 46 45 41 39 40 42 42 41 38 36 35 34 34 33 31 31 30 30 30 31 30 28 26 25 24 22 22 22 21 20 21 22 22 23 22 22 20 20 20 20 20 20 19 19 19 19 18 18 18 18 17 17 17 17 17 16 15 15 15 15 16 17 17 16 16 15 14 14 14 14 14 15
31 32 34 34 34 35 37 38 40 41 41 39 38 39 40 41 40 37 35 35 38 39 38 37 36 35 34 33 32 31 30 29 29 30 31 30 28 27 25 23 21 22 22 22 21 21 22 23 23 22 21 18 17 18 19 20 20 20 19 19 20 20 20 20 19 19 18 18 19 19 19 18 18 17 17 16 17 18 18 17 17 16 16 16 15 14 13
30 30 30 31 31 33 34 35 36 37 37 35 33 33 34 36 36 35 34 33 34 34 34 34 34 34 33 32 33 32 31 29 27 26 25 26 27 27 25 23 23 23 23 23 22 22 22 21 21 20 20 19 18 17 18 19 19 20 20 20 20 20 20 20 19 19 19 19 19 19 19 20 21 21 20 19 19 19 19 18 17 15 15 15 15 14 13
27 28 29 30 30 30 31 31 32 33 34 33 32 31 31 31 31 31 32 33 34 34 33 33 33 32 30 28 29 30 30 29 27 26 24 24 24 23 22 22 22 23 23 23 23 22 20 19 18 18 19 20 20 20 19 19 19 19 20 20 20 20 20 20 19 20 20 20 19 19 18 19 19 21 21 22 21 21 21 20 19 17 15 14 13 13 13
24 24 26 28 29 28 28 28 29 31 32 32 31 30 29 28 28 28 28 29 30 30 30 30 29 27 24 23 23 25 26 26 25 24 23 22 21 20 20 20 20 20 21 23 23 21 19 17 17 18 20 20 20 21 21 20 20 20 20 20 20 20 20 20 20 20 20 20 20 20 19 18 18 18 19 21 22 23 23 22 21 20 19 16 14 13 13
24 23 23 24 26 27 27 27 28 28 29 28 27 25 24 24 24 24 25 25 25 26 26 26 25 24 22 21 21 21 22 23 23 21 20 19 18 18 19 19 18 17 19 21 21 20 19 18 18 20 21 21 21 20 20 20 20 20 20 20 20 20 20 20 20 20 20 20 20 20 20 20 19 19 19 20 21 22 22 23 23 23 22 19 17 15 13
22 22 22 22 23 24 24 25 25 25 24 23 21 21 21 21 21 21 22 22 23 23 23 23 23 23 22 22 22 21 20 20 20 19 17 16 16 16 16 15 15 15 16 17 18 18 18 19 20 21 20 20 20 20 19 19 20 19 19 20 20 20 20 21 21 20 20 20 20 20 20 20 20 20 20 20 20 20 21 22 23 23 23 22 21 19 17
19 19 20 21 22 22 22 22 21 21 20 18 17 17 17 17 18 18 18 18 18 19 19 19 19 20 20 20 20 20 19 18 18 17 15 14 15 15 14 14 14 14 14 15 15 16 17 19 20 20 19 19 19 19 18 19 19 19 19 19 20 20 20 20 20 20 19 19 20 20 21 21 21 21 21 21 20 20 20 21 21 22 22 23 23 22 21
16 17 18 19 20 21 21 20 19 18 17 17 16 15 14 15 16 16 15 14 15 16 16 17 17 17 17 17 17 17 17 16 15 14 14 14 14 14 14 14 15 15 15 15 15 15 16 17 18 18 17 17 17 18 17 17 17 17 17 18 18 18 19 18 18 18 19 18 19 19 20 20 20 21 21 21 21 21 21 20 21 21 21 21 22 22 22
16 15 15 15 15 17 17 17 17 17 17 16 16 15 14 15 15 15 14 14 13 13 13 14 15 15 15 15 15 15 15 14 14 13 13 13 13 13 13 13 14 14 15 15 15 15 16 16 17 17 16 16 15 16 16 15 15 15 15 15 15 16 16 16 16 17 17 17 17 17 17 17 17 18 18 19 20 21 21 21 21 21 21 20 20 20 21
14 14 13 12 12 13 13 14 14 15 16 16 16 16 15 14 14 15 16 15 13 11 11 11 12 13 14 13 13 13 13 13 13 13 13 13 13 12 12 13 13 13 14 14 14 14 14 15 16 17 16 16 15 14 14 14 14 14 14 14 13 14 15 15 15 15 15 15 15 15 15 15 15 15 14 15 16 16 17 18 19 20 20 20 20 19 20
Wind_Direction
242 254 297 309 278 237 234 223 209 202 204 207 209 213 208 198 211 208 185 202 217 167 152 165 155 140 143 155 150 104 108 138 138 117 118 158 157 152 151 158 166 173 187 194 196 200 202 203 205 205 205 207 207 207 207 205 205 205 204 204 202 201 204 213 222 225 224 226 230 231 229 229 230 229 227 225 223 221 223 229 235 236 233 231 236 241 241
236 237 247 276 277 266 265 244 220 207 205 206 207 211 209 203 213 217 184 190 210 204 168 160 148 146 185 207 224 18 113 166 128 86 88 249 169 153 149 153 161 162 174 190 196 200 204 206 206 207 207 208 209 208 207 205 205 205 205 205 204 202 205 213 221 223 221 223 228 230 229 227 229 230 227 226 225 223 223 226 230 233 231 224 227 237 242
238 229 223 247 266 263 259 261 250 223 209 205 204 207 208 205 207 209 195 185 199 210 203 175 110 62 1 313 277 285 310 313 331 325 278 285 283 190 159 154 161 168 176 189 200 207 211 211 208 208 208 209 210 209 209 207 206 204 205 206 206 205 207 211 216 220 223 226 229 232 232 229 230 231 229 227 228 227 224 223 224 229 231 226 221 226 236
236 224 215 224 241 256 264 255 243 231 219 208 203 203 206 207 205 205 203 197 189 186 201 231 15 38 262 274 281 286 290 289 287 284 283 288 284 260 227 197 183 183 192 202 212 222 225 221 217 214 210 208 209 209 210 209 207 204 204 206 207 207 207 208 212 217 224 228 229 232 235 234 233 233 231 230 231 230 228 226 225 227 231 233 229 225 228
232 220 214 220 229 242 250 234 218 219 225 217 208 206 212 214 210 207 204 199 188 185 210 238 242 244 252 258 269 277 279 283 290 290 285 280 275 265 260 263 263 247 232 224 215 220 223 221 224 222 214 210 210 210 209 208 207 206 206 206 208 208 207 208 212 217 223 227 229 232 235 235 234 233 232 233 233 233 233 230 228 230 233 236 236 233 228
221 204 197 215 225 225 224 217 219 223 223 223 220 215 215 215 217 224 224 212 203 212 231 237 237 246 253 256 273 283 286 291 294 291 287 288 293 295 290 284 280 277 282 278 271 270 257 242 235 226 218 215 213 210 208 207 207 208 208 207 208 209 210 210 212 216 222 227 229 231 233 233 233 234 235 237 237 236 235 233 231 233 235 236 238 237 235
216 169 161 208 225 233 229 216 230 236 228 226 230 231 230 225 221 225 231 232 226 228 241 243 230 230 239 259 282 295 305 306 303 300 298 297 294 292 295 307 312 301 295 300 303 297 281 262 247 231 223 219 213 209 208 207 207 208 209 208 208 211 213 213 213 216 223 227 229 230 232 232 233 235 236 238 239 236 234 234 234 235 236 237 237 238 238
243 186 183 205 225 255 222 197 212 261 236 223 224 229 231 229 228 228 228 230 228 224 226 223 217 253 268 276 284 293 298 297 293 288 284 286 291 297 315 340 328 301 295 300 300 290 281 274 262 244 235 224 214 210 208 207 207 208 209 209 209 211 215 215 215 217 223 227 228 229 231 232 234 236 236 237 238 235 232 231 232 234 236 237 238 238 240
247 227 206 198 158 161 197 188 185 227 226 221 225 229 223 220 229 239 234 232 238 230 229 238 275 295 292 289 282 284 289 295 297 288 277 282 311 334 342 325 311 307 306 302 294 287 286 285 273 255 245 232 220 213 208 208 208 207 208 211 210 211 215 216 216 218 222 226 227 228 230 232 234 235 235 236 236 235 233 230 230 232 235 236 237 239 242
228 227 220 210 204 208 202 185 180 195 218 216 220 230 225 210 205 204 222 250 268 271 265 273 305 316 297 281 278 297 328 355 1 350 339 350 359 357 342 325 321 318 302 290 288 290 292 290 279 259 242 231 225 218 210 209 209 207 208 212 212 211 213 215 216 218 223 226 228 229 231 233 235 235 235 236 236 235 235 233 229 228 228 230 233 237 239
220 219 223 220 219 223 197 170 172 176 165 146 180 207 211 189 144 127 229 249 252 263 276 288 299 267 263 261 286 18 16 10 10 11 11 6 353 341 338 335 320 298 288 288 294 299 299 294 281 261 240 224 219 219 214 210 210 210 211 211 211 211 212 215 218 221 224 228 230 232 234 235 236 236 235 236 236 236 237 234 229 224 223 225 229 232 234
219 220 224 220 219 236 67 128 162 167 164 168 192 199 181 102 78 88 199 262 263 302 313 310 257 238 249 272 354 8 357 353 3 5 358 349 338 333 333 319 297 292 299 305 306 308 295 271 257 253 243 225 217 217 215 212 212 214 213 211 211 212 211 212 219 224 227 230 233 235 236 236 237 237 236 235 234 235 235 231 226 224 223 223 226 229 231
221 222 225 222 218 195 108 138 135 125 156 191 197 193 122 39 50 64 32 0 8 2 344 327 285 269 288 313 333 338 334 338 345 341 340 338 330 326 322 308 299 302 312 313 306 300 279 262 253 246 235 225 219 217 215 215 216 216 215 212 210 212 211 211 216 224 228 231 234 236 238 239 239 238 236 233 233 234 232 226 222 224 224 224 225 227 229
221 218 221 224 222 244 42 140 146 130 168 199 200 327 311 302 357 29 6 356 11 6 350 338 320 308 309 313 317 321 324 330 329 325 326 325 317 316 317 314 313 316 317 312 313 309 290 283 284 263 236 222 218 217 216 217 218 216 216 214 212 211 212 211 212 219 224 227 231 236 239 241 240 237 234 232 232 232 228 221 221 224 225 225 225 227 229
222 220 220 220 215 34 24 20 138 94 63 337 346 339 318 295 333 358 351 2 16 1 344 342 330 314 312 313 316 320 322 322 322 321 323 322 317 314 312 313 320 322 314 315 325 323 301 277 256 250 241 223 211 212 216 217 216 214 213 214 213 212 211 211 211 213 218 223 230 236 239 238 236 234 232 230 227 225 223 220 220 222 224 225 227 228 229
212 215 212 216 258 14 15 10 34 40 29 12 353 347 345 349 354 353 348 354 6 358 345 342 333 319 315 315 319 323 322 319 319 317 319 322 321 317 313 312 316 318 322 330 333 336 323 277 225 182 190 214 201 196 207 207 204 209 212 213 212 210 209 210 210 211 214 218 226 232 233 231 229 229 230 227 223 222 224 222 220 222 225 227 229 231 234
265 254 261 321 339 349 1 12 24 17 4 359 360 355 351 353 357 359 353 344 347 353 349 342 335 328 322 319 318 317 314 315 317 314 313 314 313 313 317 318 316 312 321 336 339 359 1 326 226 172 135 153 173 180 200 197 187 189 199 203 204 205 206 207 208 209 211 213 217 220 220 222 225 225 224 222 220 221 225 224 223 225 228 230 233 235 237
293 284 269 274 297 313 306 316 343 347 340 342 355 356 351 349 349 352 352 346 342 342 343 344 341 336 328 320 317 314 311 310 311 310 311 309 305 307 312 316 325 329 321 344 12 35 27 18 60 166 144 132 158 189 209 203 192 185 179 182 194 202 204 205 204 204 207 210 214 215 214 216 221 223 222 219 219 221 223 224 226 228 230 231 234 238 240
274 277 260 259 286 306 306 305 310 313 321 338 346 344 341 340 340 344 346 342 337 334 334 338 337 334 331 322 315 315 316 313 310 311 312 309 305 306 309 310 323 346 338 353 40 58 48 40 45 112 132 107 134 193 191 206 210 201 189 184 192 199 200 202 202 202 203 206 210 213 214 214 216 218 219 219 220 222 224 225 228 231 232 233 235 238 242
245 256 271 284 295 298 295 290 285 284 303 339 343 334 327 327 332 338 339 335 331 328 327 331 331 327 327 320 311 314 317 314 315 318 320 323 321 316 315 318 327 353 2 9 48 61 59 57 59 70 80 73 65 111 163 159 181 197 193 183 178 185 188 190 194 199 201 202 205 210 215 216 216 218 219 221 223 225 225 227 229 232 235 237 239 242 245
249 249 260 273 284 286 278 273 277 287 310 335 335 327 322 318 320 329 333 330 326 320 317 324 327 321 320 315 307 317 326 321 322 327 327 332 338 335 334 336 333 337 20 47 61 64 62 64 70 72 70 70 68 65 73 104 124 147 163 157 155 163 169 176 189 196 199 202 205 207 212 215 216 217 218 220 224 227 228 231 232 233 237 240 241 241 244
247 243 245 255 268 277 272 273 287 306 318 324 323 319 316 313 311 315 321 321 316 308 306 311 306 299 310 317 309 321 339 330 326 336 338 339 351 0 7 17 27 38 59 70 68 64 66 66 70 70 65 59 59 61 64 78 97 112 123 132 140 144 147 163 180 186 191 201 205 205 210 217 220 223 224 224 224 224 224 226 230 232 235 239 241 241 243
255 255 255 261 274 287 287 289 296 299 296 300 303 302 302 303 300 296 302 311 310 302 297 297 288 274 277 304 307 316 1 3 351 9 18 13 18 23 26 39 54 63 74 82 77 73 73 69 66 65 61 54 52 56 63 72 81 90 103 117 127 140 164 173 170 164 163 172 187 196 200 203 209 217 222 224 227 229 229 230 232 233 235 237 239 241 244
271 272 272 273 274 273 275 279 282 283 285 288 289 288 289 291 290 286 288 299 303 298 290 289 284 271 253 229 222 106 95 95 69 60 64 55 49 51 48 48 60 72 82 88 85 78 76 74 70 66 61 57 55 56 60 66 74 80 90 102 107 112 158 177 175 170 168 171 179 191 200 206 211 213 213 215 227 237 238 238 240 243 246 247 248 247 248
263 268 269 271 271 269 270 273 274 275 277 278 277 279 280 280 281 282 282 289 295 292 284 281 279 269 244 217 194 144 116 117 98 81 82 82 76 76 74 69 74 83 89 94 95 91 86 85 81 73 65 59 57 60 62 64 70 77 84 91 93 84 96 147 167 168 166 170 170 170 184 204 213 213 214 219 234 250 253 250 247 246 248 252 256 257 256
259 263 265 265 263 262 262 264 265 267 268 266 265 267 269 272 276 277 277 280 285 284 277 275 274 266 247 220 193 161 134 125 111 92 86 84 78 76 77 76 79 86 91 93 95 95 96 98 93 81 72 66 63 65 68 70 72 74 77 86 102 106 99 105 126 133 128 130 139 149 160 166 166 170 177 180 185 194 237 316 297 226 221 239 259 270 270
260 262 264 264 262 258 256 256 260 263 263 261 259 258 260 265 271 271 269 270 272 271 265 261 262 259 250 219 180 158 135 121 114 100 88 85 81 78 77 74 75 82 88 91 89 85 84 89 88 82 78 74 69 67 71 77 76 69 65 72 88 105 105 100 100 106 109 109 113 121 126 124 123 126 125 121 120 113 94 80 70 68 64 42 11 347 328
263 260 257 255 256 259 259 259 261 262 259 255 255 256 258 260 261 261 260 257 258 258 253 248 250 246 233 196 159 150 134 119 115 108 94 86 82 81 80 78 78 80 82 85 86 83 81 79 74 72 80 86 83 78 76 79 82 80 75 72 72 78 87 92 97 106 112 113 113 115 117 118 117 114 108 104 97 85 82 70 50 49 36 358 350 347 342
260 258 254 252 254 258 260 261 261 261 258 253 248 246 251 255 253 249 248 245 244 243 239 238 242 231 208 169 126 128 123 110 106 106 100 89 85 84 82 81 81 77 74 75 77 77 79 76 69 67 76 93 97 91 80 75 87 95 97 103 103 90 80 79 87 102 110 113 113 111 107 105 104 98 89 83 73 66 61 37 29 34 4 346 356 354 337
256 253 252 252 252 253 254 255 254 252 250 248 243 240 246 251 247 241 236 232 229 229 230 232 231 211 187 168 128 119 112 102 97 98 97 91 89 89 87 84 82 76 68 67 67 67 67 67 64 64 67 77 98 101 90 81 84 84 71 70 80 97 107 104 97 98 103 99 94 92 87 82 83 79 65 51 42 37 29 11 10 13 357 350 356 345 328
254 250 248 249 250 250 251 253 252 248 244 242 241 241 242 241 238 234 227 218 214 216 220 222 212 186 161 149 142 123 107 99 95 93 92 89 87 86 84 81 80 76 70 68 69 68 66 62 58 59 61 62 78 101 102 92 85 74 56 47 34 36 89 100 90 79 88 87 76 75 76 69 62 54 45 35 27 20 13 3 358 355 349 349 346 332 324
253 252 250 249 248 248 249 252 249 242 237 235 235 234 233 232 228 220 208 203 204 207 207 202 189 172 153 142 138 130 117 107 100 94 91 88 85 84 83 81 80 80 76 73 72 70 66 61 54 50 56 61 65 81 102 107 102 92 79 69 53 49 82 100 96 74 68 73 70 64 59 48 38 32 25 19 14 8 2 357 355 352 346 344 340 328 322
244 245 243 240 240 242 244 244 239 231 229 230 230 227 226 224 218 205 194 192 194 194 192 183 168 157 154 147 137 130 123 116 108 102 97 91 84 81 81 80 80 79 77 75 72 68 68 65 55 46 46 57 64 70 78 84 88 88 79 76 79 79 88 105 108 89 60 50 51 46 38 31 20 10 3 358 351 346 346 346 345 343 340 337 331 323 321
235 237 239 241 242 241 235 229 223 221 222 223 222 220 219 218 213 202 194 190 188 184 177 166 154 151 152 146 132 122 121 118 112 106 101 94 88 85 82 80 78 76 74 70 67 66 73 76 70 57 49 49 56 68 72 66 60 62 64 61 63 66 67 85 91 78 60 47 39 29 22 21 13 0 353 348 341 337 340 341 337 334 332 329 325 322 324
235 242 247 248 247 238 224 214 213 216 218 217 214 214 214 211 204 195 188 183 180 174 164 155 149 144 142 137 125 113 111 110 102 95 95 93 87 84 82 80 77 74 70 64 59 59 69 79 78 68 55 49 54 68 77 72 58 48 50 51 48 48 51 57 64 63 59 54 41 25 14 9 4 355 348 343 338 336 338 338 335 331 324 321 321 323 325
67 76 91 202 208 207 209 211 211 210 208 204 204 207 204 197 190 187 183 176 170 162 152 144 138 129 126 127 122 115 114 108 94 88 93 94 91 91 90 84 76 70 67 63 57 52 58 72 78 72 61 58 65 74 79 76 65 51 50 53 49 44 44 45 45 46 48 46 40 29 18 12 12 9 2 354 348 346 342 338 334 330 323 320 322 322 321
61 70 77 81 89 103 126 151 157 158 166 168 165 178 195 197 193 184 171 161 157 153 144 136 130 123 119 116 112 111 113 108 97 94 98 98 100 101 95 84 73 67 63 59 56 54 58 71 82 81 73 72 78 84 83 79 70 59 53 56 54 49 48 48 48 47 47 46 42 35 28 23 20 17 12 7 3 358 353 349 344 336 326 323 325 325 323
55 62 70 77 81 83 81 80 82 84 89 102 109 114 146 172 171 160 151 149 149 143 133 125 120 115 111 107 103 101 101 99 96 95 94 92 92 91 83 72 65 64 60 58 64 70 71 76 83 83 80 80 82 84 85 83 75 65 58 58 58 55 52 52 52 49 47 48 45 39 34 31 26 18 13 13 10 4 358 356 355 348 337 330 329 326 321
49 53 59 65 71 75 75 72 72 74 80 89 98 105 111 114 118 124 130 133 132 127 120 115 113 109 106 104 100 96 93 92 90 89 87 86 86 84 78 69 66 69 70 72 78 81 80 81 83 80 78 77 74 71 74 78 77 70 63 60 62 61 57 54 53 51 48 47 45 42 38 36 32 28 25 21 18 13 7 360 355 353 350 346 342 339 331
48 49 52 56 62 66 68 68 68 70 76 83 87 88 92 98 103 105 105 107 110 111 108 106 105 104 102 101 99 96 92 88 84 81 80 78 77 77 73 66 64 69 75 77 80 80 81 83 82 78 74 73 70 67 67 69 69 67 64 60 59 59 58 54 52 51 49 48 47 45 42 39 37 36 35 32 30 27 21 13 7 6 5 359 354 354 352
51 52 54 57 60 62 61 61 63 66 71 77 79 78 80 87 92 93 90 90 94 97 97 96 96 94 93 93 93 90 87 86 85 82 78 73 69 67 64 58 57 65 72 74 76 77 78 79 80 77 73 71 71 71 70 67 64 62 61 59 57 56 55 52 50 49 49 48 47 46 44 41 38 40 42 43 42 41 38 32 28 25 20 14 11 13 10
52 57 59 61 64 64 62 61 62 64 66 70 73 74 75 78 82 82 80 81 85 88 89 90 91 90 87 86 85 81 79 80 81 80 77 72 67 63 60 54 53 61 70 72 72 74 75 74 74 74 73 72 74 74 71 65 60 57 56 57 58 58 56 53 50 49 49 49 48 49 49 45 39 38 40 42 42 41 41 40 39 37 34 32 31 29 23
50 56 59 61 64 66 66 67 69 70 69 69 72 74 75 77 79 79 77 76 78 81 83 85 86 86 85 83 81 78 74 73 71 71 71 68 65 63 61 56 54 58 64 65 65 68 71 71 69 68 69 73 79 82 78 70 63 58 55 53 55 56 55 53 51 50 50 49 47 47 50 50 47 43 42 40 38 38 38 39 38 37 37 36 34 30 28
52 55 58 61 63 64 65 67 71 74 75 75 76 75 75 76 78 79 80 80 81 81 81 81 80 79 79 80 80 77 71 67 64 64 65 63 61 59 57 55 56 59 59 57 57 61 66 68 69 69 69 68 69 74 78 75 70 64 59 55 54 53 51 49 49 49 49 50 48 46 47 48 49 49 48 45 40 38 37 37 37 38 38 37 34 30 27
48 51 58 64 66 64 63 64 67 72 77 79 78 76 76 76 77 79 82 84 84 84 84 84 81 77 74 74 77 77 74 69 63 60 60 60 58 55 53 52 53 56 58 57 55 56 61 65 68 70 70 66 62 61 63 65 66 66 62 58 55 52 49 47 48 48 48 48 49 48 47 46 46 47 48 48 47 44 42 40 40 41 42 42 40 34 28
41 45 54 62 65 64 64 66 70 77 82 81 74 70 72 76 79 80 82 83 83 83 83 84 84 82 79 76 75 76 77 74 69 63 61 60 59 58 59 55 49 45 48 53 53 54 57 62 65 65 63 59 57 56 55 55 57 60 60 58 56 53 48 45 45 46 46 47 48 48 49 49 47 45 45 46 46 46 45 44 44 45 46 48 47 42 34
39 40 45 54 59 62 65 69 72 74 74 71 67 64 66 70 74 77 78 80 83 83 82 82 84 86 86 83 79 76 75 74 71 65 60 59 58 59 62 62 56 46 41 41 44 49 55 60 62 62 60 55 52 52 53 52 50 51 53 54 54 53 51 47 45 43 45 46 47 47 48 48 49 47 46 46 45 43 43 43 43 43 44 46 48 45 39
40 40 42 48 55 58 59 61 60 57 55 55 57 59 60 63 68 70 72 73 76 77 77 78 80 80 79 79 77 73 71 70 67 62 58 58 58 56 56 60 64 60 49 41 39 44 51 57 58 55 54 54 52 51 51 51 50 49 49 49 49 49 50 49 47 45 44 45 46 46 46 46 46 46 46 45 45 44 42 41 40 39 38 39 41 42 40
40 41 41 45 49 50 50 49 49 48 47 48 51 55 57 58 60 62 62 63 64 65 65 66 66 66 65 65 65 66 66 66 65 62 57 53 52 50 47 46 50 54 55 50 43 41 48 57 58 52 47 50 53 51 50 50 50 49 48 48 47 46 46 46 45 45 44 44 45 46 47 47 47 46 45 44 44 43 42 40 40 38 36 35 35 37 37
35 39 41 42 43 43 44 46 46 46 45 47 49 52 55 56 56 56 56 57 58 59 59 57 56 55 56 56 57 57 57 58 58 57 53 47 45 44 43 41 42 45 49 51 47 42 42 49 53 51 47 47 49 50 49 49 48 46 45 45 44 44 44 43 41 41 41 42 41 42 43 44 44 43 43 43 42 42 41 40 39 39 38 35 33 33 33
27 32 36 41 44 44 43 45 46 45 44 45 47 49 51 53 54 52 51 52 54 54 53 53 53 51 50 51 51 50 49 47 46 46 46 46 45 42 40 40 41 43 44 46 46 44 41 42 45 48 48 47 46 46 47 47 46 45 44 43 40 39 40 39 38 37 37 37 37 37 37 36 34 32 31 32 34 34 34 34 34 34 35 36 35 33 31
28 31 30 30 36 41 41 41 43 44 43 43 45 46 47 49 50 47 45 45 45 45 45 47 48 47 47 47 46 45 44 43 41 40 41 43 43 41 39 39 39 41 42 43 44 43 42 41 42 45 46 46 46 45 45 45 44 43 42 41 40 37 36 36 38 37 36 35 35 34 33 32 32 30 28 28 28 27 25 26 27 28 28 30 33 36 36
Height
1378 1380 1383 1379 1373 1370 1368 1367 1366 1368 1371 1374 1377 1382 1381 1384 1397 1401 1393 1393 1399 1394 1389 1390 1388 1387 1389 1387 1385 1386 1390 1393 1395 1398 1400 1400 1400 1403 1406 1408 1410 1411 1414 1415 1418 1420 1421 1423 1425 1427 1429 1431 1433 1435 1438 1441 1444 1446 1449 1451 1453 1455 1456 1458 1460 1462 1466 1469 1471 1475 1478 1480 1483 1486 1489 1492 1496 1498 1500 1500 1502 1505 1507 1508 1509 1511 1513
1382 1382 1384 1382 1378 1376 1374 1368 1363 1362 1366 1369 1373 1377 1376 1380 1388 1388 1386 1394 1396 1388 1384 1385 1384 1385 1386 1386 1388 1390 1392 1394 1395 1398 1401 1399 1398 1400 1403 1406 1409 1410 1412 1414 1416 1418 1419 1421 1423 1424 1427 1428 1430 1433 1435 1437 1440 1442 1445 1447 1449 1451 1452 1453 1455 1459 1462 1465 1467 1470 1473 1476 1478 1481 1485 1488 1491 1494 1496 1497 1498 1500 1503 1505 1506 1507 1509
1389 1384 1384 1384 1383 1381 1379 1374 1368 1363 1363 1365 1370 1373 1374 1379 1386 1384 1385 1395 1396 1385 1379 1380 1383 1387 1389 1390 1392 1393 1395 1397 1398 1400 1401 1400 1400 1401 1402 1404 1407 1410 1412 1413 1414 1415 1416 1418 1420 1421 1424 1425 1428 1431 1432 1434 1436 1439 1442 1443 1445 1446 1448 1450 1452 1455 1458 1461 1463 1466 1469 1472 1474 1477 1481 1483 1486 1489 1491 1493 1495 1496 1499 1501 1503 1503 1504
1398 1386 1386 1387 1383 1383 1384 1382 1376 1370 1367 1366 1367 1369 1370 1375 1382 1385 1389 1397 1397 1386 1381 1383 1386 1389 1392 1393 1394 1395 1397 1398 1400 1402 1402 1402 1403 1403 1403 1404 1406 1409 1411 1411 1412 1413 1414 1415 1417 1418 1420 1422 1424 1426 1429 1431 1434 1436 1438 1439 1440 1442 1444 1448 1450 1451 1453 1456 1459 1461 1464 1467 1470 1473 1476 1479 1481 1484 1486 1489 1491 1492 1494 1496 1497 1499 1500
1400 1385 1384 1386 1388 1395 1395 1383 1375 1375 1374 1372 1370 1370 1372 1373 1379 1387 1394 1395 1392 1387 1387 1390 1391 1391 1392 1393 1393 1395 1396 1397 1399 1401 1402 1403 1403 1403 1404 1405 1406 1408 1410 1410 1412 1413 1414 1414 1415 1416 1417 1419 1420 1422 1426 1429 1431 1433 1434 1435 1437 1439 1441 1444 1445 1446 1448 1451 1454 1457 1459 1463 1466 1469 1472 1474 1476 1479 1481 1484 1486 1487 1488 1490 1492 1494 1495
1398 1385 1383 1389 1397 1403 1393 1375 1370 1375 1376 1377 1378 1379 1378 1377 1379 1384 1388 1387 1386 1387 1389 1391 1392 1391 1391 1392 1393 1394 1395 1396 1398 1399 1400 1401 1402 1403 1405 1405 1406 1407 1408 1409 1411 1411 1412 1414 1414 1414 1415 1416 1417 1420 1423 1425 1427 1429 1430 1432 1434 1436 1437 1440 1441 1442 1444 1446 1449 1452 1455 1458 1462 1464 1467 1469 1471 1474 1476 1478 1480 1481 1482 1484 1486 1488 1490
1393 1385 1393 1408 1409 1396 1379 1371 1371 1372 1372 1376 1380 1380 1378 1377 1379 1382 1384 1385 1386 1387 1387 1387 1389 1390 1392 1394 1395 1395 1395 1396 1397 1397 1398 1399 1401 1402 1403 1403 1404 1405 1406 1407 1408 1408 1410 1411 1412 1413 1413 1414 1415 1417 1419 1421 1423 1425 1427 1429 1431 1432 1433 1436 1438 1439 1440 1442 1445 1448 1450 1453 1456 1458 1461 1462 1465 1468 1470 1473 1474 1475 1477 1479 1480 1482 1484
1398 1392 1401 1413 1406 1385 1373 1375 1376 1375 1375 1377 1381 1384 1381 1377 1378 1380 1383 1384 1383 1384 1386 1387 1390 1392 1393 1395 1396 1396 1397 1396 1396 1396 1396 1397 1398 1399 1400 1402 1402 1403 1403 1404 1405 1406 1407 1408 1409 1411 1412 1412 1414 1414 1416 1418 1419 1421 1423 1425 1427 1428 1429 1431 1433 1435 1436 1439 1442 1444 1446 1448 1450 1452 1455 1457 1460 1463 1466 1468 1470 1471 1472 1474 1475 1477 1478
1404 1401 1399 1398 1396 1390 1384 1382 1382 1382 1382 1379 1381 1387 1384 1377 1376 1379 1382 1385 1385 1386 1388 1389 1392 1394 1396 1397 1397 1396 1396 1396 1395 1395 1394 1395 1397 1398 1399 1400 1400 1400 1401 1401 1402 1403 1404 1405 1406 1408 1409 1411 1411 1412 1414 1415 1416 1418 1420 1421 1422 1424 1425 1427 1430 1432 1434 1436 1438 1440 1442 1444 1446 1448 1450 1453 1456 1459 1461 1464 1465 1466 1467 1469 1471 1472 1473
1403 1403 1402 1398 1400 1399 1388 1382 1382 1381 1380 1378 1380 1388 1388 1379 1377 1382 1386 1390 1391 1391 1392 1393 1394 1397 1401 1402 1398 1395 1396 1396 1395 1394 1393 1394 1396 1397 1398 1399 1399 1399 1399 1399 1400 1401 1402 1403 1403 1404 1406 1408 1409 1410 1411 1412 1414 1415 1416 1416 1418 1420 1422 1424 1426 1429 1431 1433 1435 1437 1438 1440 1442 1444 1447 1449 1452 1454 1456 1458 1461 1462 1464 1465 1466 1467 1468
1406 1408 1410 1405 1400 1392 1380 1378 1380 1380 1382 1380 1384 1396 1397 1384 1381 1387 1389 1390 1392 1393 1394 1395 1396 1401 1406 1404 1397 1395 1397 1397 1396 1396 1396 1396 1397 1398 1399 1399 1399 1398 1398 1398 1399 1400 1400 1401 1401 1401 1403 1404 1406 1407 1408 1410 1411 1411 1411 1413 1415 1418 1420 1421 1423 1425 1427 1429 1431 1433 1435 1436 1439 1441 1444 1446 1448 1450 1452 1454 1457 1459 1461 1462 1462 1463 1464
1413 1413 1411 1401 1393 1387 1382 1381 1380 1381 1383 1385 1393 1407 1404 1390 1388 1393 1392 1392 1394 1395 1397 1398 1398 1401 1403 1400 1396 1397 1399 1398 1398 1398 1398 1398 1398 1398 1399 1399 1398 1397 1397 1398 1398 1399 1399 1398 1398 1399 1400 1401 1403 1404 1405 1407 1408 1408 1410 1412 1414 1416 1418 1420 1421 1422 1423 1425 1427 1429 1431 1434 1436 1439 1441 1443 1445 1447 1448 1450 1453 1455 1457 1458 1459 1459 1460
1415 1415 1412 1401 1390 1385 1384 1386 1386 1386 1387 1391 1402 1410 1404 1396 1395 1397 1396 1396 1397 1397 1399 1400 1399 1398 1398 1397 1398 1399 1399 1398 1399 1399 1399 1399 1399 1399 1400 1399 1397 1397 1398 1398 1398 1398 1397 1396 1396 1397 1398 1399 1400 1402 1403 1404 1406 1408 1409 1411 1412 1414 1415 1417 1419 1419 1421 1422 1424 1426 1429 1431 1434 1436 1438 1440 1442 1443 1445 1447 1449 1450 1452 1453 1455 1455 1456
1413 1412 1413 1408 1396 1386 1385 1387 1389 1390 1393 1402 1409 1409 1403 1400 1399 1398 1398 1398 1398 1399 1401 1401 1401 1400 1399 1399 1399 1399 1399 1399 1399 1399 1399 1400 1400 1400 1400 1398 1397 1398 1398 1397 1397 1396 1396 1396 1396 1396 1396 1397 1398 1400 1401 1402 1404 1407 1409 1410 1411 1412 1413 1415 1416 1418 1419 1420 1422 1424 1426 1429 1431 1433 1435 1437 1438 1440 1442 1444 1445 1446 1448 1449 1451 1452 1452
1414 1412 1413 1413 1407 1396 1391 1391 1393 1396 1402 1411 1413 1408 1403 1401 1399 1398 1400 1399 1399 1401 1402 1402 1403 1402 1400 1400 1400 1399 1400 1399 1399 1399 1399 1399 1400 1400 1400 1399 1398 1398 1397 1397 1396 1395 1395 1395 1395 1395 1396 1396 1397 1398 1400 1401 1403 1405 1407 1408 1409 1410 1411 1413 1415 1416 1417 1418 1419 1421 1423 1425 1427 1429 1431 1434 1435 1437 1439 1441 1442 1443 1444 1445 1447 1448 1449
1413 1413 1410 1409 1407 1402 1398 1398 1401 1406 1409 1411 1411 1408 1406 1404 1403 1402 1402 1400 1401 1403 1403 1404 1404 1402 1401 1401 1400 1400 1400 1399 1399 1399 1399 1399 1399 1399 1400 1399 1398 1397 1397 1396 1396 1395 1394 1393 1393 1394 1395 1395 1396 1398 1399 1399 1401 1403 1405 1406 1407 1408 1410 1411 1413 1415 1416 1417 1418 1419 1421 1423 1425 1426 1429 1431 1432 1434 1436 1437 1440 1441 1441 1443 1444 1444 1445
1413 1410 1407 1407 1408 1406 1404 1403 1406 1409 1410 1411 1411 1411 1409 1408 1406 1405 1404 1403 1402 1403 1404 1405 1404 1402 1401 1401 1400 1400 1400 1399 1399 1399 1398 1399 1399 1399 1399 1399 1397 1397 1398 1397 1396 1395 1394 1393 1393 1393 1394 1395 1396 1397 1397 1397 1399 1400 1402 1404 1405 1406 1408 1409 1411 1413 1415 1416 1417 1418 1419 1421 1422 1424 1426 1428 1430 1431 1433 1435 1436 1437 1439 1440 1441 1441 1442
1415 1410 1407 1409 1410 1408 1407 1407 1408 1410 1411 1411 1412 1412 1411 1410 1409 1407 1406 1405 1404 1403 1404 1404 1403 1403 1403 1402 1401 1401 1400 1400 1400 1399 1398 1399 1398 1398 1398 1397 1396 1397 1397 1396 1396 1396 1395 1394 1394 1393 1394 1395 1396 1396 1395 1396 1398 1399 1400 1402 1403 1405 1407 1408 1409 1411 1413 1414 1416 1417 1418 1419 1420 1422 1424 1426 1427 1429 1430 1432 1433 1434 1436 1437 1438 1438 1439
1420 1415 1407 1406 1409 1410 1411 1412 1413 1413 1413 1412 1412 1413 1412 1412 1410 1408 1407 1407 1406 1405 1405 1404 1404 1404 1404 1403 1402 1401 1400 1400 1400 1399 1399 1398 1398 1397 1397 1396 1396 1396 1396 1396 1396 1396 1395 1395 1394 1394 1394 1394 1395 1395 1396 1397 1398 1398 1399 1400 1402 1404 1405 1406 1407 1409 1410 1412 1414 1415 1417 1418 1419 1421 1422 1424 1426 1427 1428 1430 1431 1432 1433 1434 1435 1436 1436
1421 1416 1409 1407 1410 1412 1413 1414 1414 1413 1413 1413 1413 1413 1413 1412 1411 1410 1409 1409 1408 1407 1406 1405 1405 1405 1405 1405 1404 1402 1401 1400 1400 1399 1399 1398 1397 1397 1396 1396 1396 1395 1396 1396 1396 1396 1395 1395 1394 1395 1394 1395 1395 1396 1396 1397 1398 1398 1399 1400 1401 1402 1403 1405 1406 1407 1409 1411 1412 1414 1416 1417 1418 1420 1421 1423 1424 1425 1426 1427 1429 1430 1431 1432 1433 1434 1434
1418 1414 1412 1411 1411 1410 1410 1411 1412 1411 1412 1414 1414 1414 1413 1413 1412 1411 1410 1410 1409 1408 1407 1406 1406 1405 1405 1405 1404 1403 1402 1401 1400 1399 1399 1398 1398 1397 1396 1396 1395 1395 1396 1396 1396 1395 1395 1394 1394 1395 1395 1395 1396 1395 1395 1396 1396 1398 1399 1399 1400 1401 1402 1404 1405 1406 1408 1409 1410 1412 1414 1416 1417 1418 1420 1421 1422 1423 1424 1425 1426 1427 1428 1429 1430 1431 1432
1417 1413 1411 1412 1412 1409 1407 1409 1411 1412 1413 1414 1414 1414 1414 1414 1413 1413 1412 1411 1410 1409 1408 1407 1406 1406 1405 1404 1404 1404 1402 1401 1401 1400 1399 1398 1398 1397 1397 1396 1396 1395 1396 1396 1395 1395 1395 1395 1395 1395 1395 1395 1395 1395 1395 1395 1396 1397 1398 1399 1400 1401 1402 1403 1404 1405 1407 1409 1410 1411 1413 1415 1416 1417 1418 1419 1420 1420 1421 1422 1423 1423 1424 1425 1426 1427 1427
1412 1410 1410 1411 1412 1411 1410 1411 1413 1414 1414 1415 1415 1415 1415 1415 1414 1414 1414 1412 1411 1410 1409 1407 1407 1406 1405 1404 1404 1403 1403 1402 1401 1400 1399 1399 1398 1398 1397 1397 1396 1396 1396 1395 1395 1395 1395 1395 1395 1394 1395 1395 1395 1395 1395 1395 1396 1397 1398 1399 1400 1401 1401 1402 1403 1404 1406 1408 1408 1409 1411 1412 1413 1414 1415 1416 1417 1418 1419 1419 1419 1420 1421 1421 1422 1423 1423
1412 1411 1412 1413 1414 1414 1413 1413 1413 1414 1415 1415 1415 1414 1414 1414 1414 1415 1414 1413 1412 1410 1409 1407 1407 1406 1405 1404 1404 1404 1403 1402 1401 1401 1400 1399 1398 1398 1398 1397 1397 1397 1396 1396 1396 1396 1396 1396 1396 1395 1395 1395 1395 1395 1395 1395 1396 1397 1398 1399 1400 1400 1400 1400 1401 1402 1403 1404 1405 1407 1409 1410 1411 1411 1413 1414 1415 1416 1416 1416 1417 1417 1418 1419 1420 1420 1421
1414 1414 1415 1415 1415 1414 1413 1413 1412 1413 1414 1414 1413 1413 1413 1412 1413 1413 1413 1413 1411 1410 1409 1407 1407 1406 1405 1404 1404 1403 1403 1402 1401 1401 1401 1400 1399 1399 1398 1398 1397 1397 1397 1397 1397 1397 1397 1396 1396 1396 1397 1397 1396 1396 1396 1396 1397 1397 1398 1399 1400 1400 1400 1400 1401 1402 1403 1403 1405 1407 1408 1409 1410 1411 1412 1413 1414 1414 1414 1414 1414 1415 1415 1416 1417 1417 1417
1414 1414 1415 1415 1413 1412 1411 1411 1409 1410 1411 1411 1411 1411 1411 1411 1411 1411 1412 1412 1411 1409 1408 1407 1406 1406 1405 1404 1403 1403 1402 1402 1402 1401 1401 1401 1400 1399 1399 1399 1398 1398 1398 1398 1398 1397 1397 1397 1397 1397 1398 1398 1398 1398 1398 1399 1399 1399 1399 1400 1400 1401 1401 1402 1402 1403 1403 1404 1405 1406 1407 1408 1409 1410 1411 1412 1412 1413 1413 1413 1413 1414 1414 1414 1414 1414 1414
1411 1412 1413 1411 1408 1407 1408 1407 1406 1407 1409 1409 1408 1408 1409 1409 1410 1410 1410 1410 1409 1408 1407 1407 1406 1406 1405 1405 1403 1402 1402 1402 1401 1401 1401 1401 1400 1400 1400 1400 1399 1399 1399 1399 1399 1399 1399 1399 1399 1399 1399 1399 1400 1400 1400 1401 1401 1401 1401 1401 1402 1402 1403 1403 1404 1405 1405 1405 1406 1406 1407 1408 1409 1410 1411 1411 1411 1412 1412 1413 1413 1413 1413 1413 1413 1412 1412
1407 1408 1409 1407 1404 1404 1405 1405 1404 1404 1405 1405 1405 1406 1406 1407 1407 1408 1408 1408 1408 1407 1406 1406 1406 1405 1405 1405 1404 1403 1402 1402 1401 1401 1401 1401 1401 1401 1401 1401 1401 1400 1400 1400 1400 1400 1400 1400 1400 1400 1400 1400 1400 1401 1402 1403 1403 1403 1404 1404 1405 1405 1405 1406 1406 1406 1406 1406 1407 1407 1408 1408 1409 1410 1411 1411 1412 1412 1412 1412 1412 1412 1413 1412 1411 1411 1410
1400 1401 1403 1402 1401 1402 1402 1402 1401 1401 1401 1401 1402 1402 1403 1404 1404 1405 1405 1405 1406 1406 1406 1405 1405 1405 1405 1405 1404 1403 1403 1402 1402 1402 1402 1402 1401 1401 1401 1401 1402 1401 1401 1401 1401 1401 1401 1401 1401 1401 1402 1402 1401 1402 1403 1404 1404 1404 1404 1405 1406 1406 1407 1407 1408 1408 1408 1408 1408 1408 1409 1409 1410 1411 1411 1411 1411 1411 1411 1411 1411 1411 1411 1411 1410 1409 1408
1394 1396 1397 1397 1398 1398 1398 1397 1397 1398 1398 1398 1398 1399 1400 1401 1401 1402 1402 1403 1404 1405 1405 1405 1405 1405 1405 1405 1404 1403 1403 1402 1402 1402 1402 1402 1402 1402 1402 1402 1402 1402 1402 1402 1402 1402 1402 1402 1402 1402 1403 1403 1403 1402 1403 1404 1405 1405 1405 1405 1406 1406 1407 1408 1409 1409 1409 1409 1409 1409 1410 1410 1411 1411 1411 1411 1410 1410 1411 1410 1410 1411 1411 1410 1409 1408 1406
1389 1390 1391 1393 1393 1393 1392 1392 1393 1393 1394 1394 1395 1396 1397 1398 1398 1399 1400 1401 1402 1403 1404 1404 1405 1405 1405 1404 1404 1404 1403 1403 1403 1403 1403 1403 1403 1403 1403 1402 1403 1403 1403 1403 1403 1403 1403 1403 1403 1404 1404 1404 1404 1404 1404 1405 1406 1406 1406 1406 1407 1407 1407 1408 1409 1410 1410 1411 1411 1411 1411 1411 1411 1410 1410 1410 1410 1410 1411 1411 1410 1410 1410 1409 1408 1406 1404
1383 1384 1385 1387 1387 1387 1387 1387 1388 1388 1389 1390 1391 1392 1393 1394 1395 1396 1397 1399 1401 1402 1403 1404 1404 1404 1404 1404 1404 1405 1404 1404 1404 1404 1404 1404 1404 1404 1404 1404 1404 1404 1404 1404 1404 1405 1405 1405 1405 1405 1405 1405 1405 1405 1405 1405 1406 1406 1407 1407 1408 1408 1408 1408 1409 1410 1411 1411 1411 1411 1411 1410 1410 1410 1410 1410 1411 1411 1411 1410 1409 1409 1408 1408 1407 1405 1403
1377 1378 1378 1379 1380 1381 1381 1381 1381 1382 1384 1386 1387 1388 1389 1391 1392 1393 1396 1398 1399 1401 1402 1403 1403 1404 1404 1405 1405 1405 1405 1405 1405 1406 1406 1405 1405 1405 1405 1405 1405 1405 1405 1406 1406 1406 1406 1406 1406 1407 1406 1406 1405 1406 1406 1406 1407 1407 1408 1408 1408 1409 1409 1409 1409 1409 1410 1410 1410 1410 1410 1410 1410 1410 1411 1411 1410 1410 1410 1409 1409 1408 1407 1407 1406 1405 1403
1371 1371 1371 1372 1373 1374 1374 1374 1376 1378 1380 1381 1383 1385 1386 1388 1389 1390 1393 1395 1398 1399 1400 1401 1402 1403 1404 1404 1405 1406 1406 1407 1407 1407 1407 1406 1407 1407 1407 1407 1406 1406 1406 1406 1407 1407 1406 1406 1407 1407 1408 1407 1406 1406 1406 1407 1408 1408 1408 1409 1409 1409 1409 1408 1408 1409 1410 1410 1410 1410 1410 1410 1409 1409 1410 1410 1410 1410 1409 1408 1408 1408 1407 1407 1407 1405 1403
1367 1367 1367 1367 1367 1369 1369 1371 1373 1376 1377 1379 1381 1383 1384 1386 1387 1388 1390 1393 1396 1398 1398 1399 1400 1402 1403 1405 1406 1406 1407 1407 1408 1408 1408 1408 1408 1409 1409 1408 1408 1408 1407 1407 1407 1408 1408 1407 1407 1407 1408 1408 1407 1407 1407 1407 1408 1409 1409 1409 1409 1409 1409 1409 1408 1408 1409 1409 1410 1410 1410 1409 1409 1409 1409 1409 1409 1408 1408 1408 1407 1407 1407 1407 1406 1405 1403
1365 1364 1364 1364 1364 1366 1368 1371 1373 1374 1376 1378 1380 1382 1383 1384 1385 1387 1389 1392 1394 1396 1397 1398 1399 1401 1404 1405 1406 1407 1407 1408 1408 1409 1410 1410 1409 1409 1409 1409 1409 1409 1408 1408 1408 1409 1409 1408 1407 1407 1408 1408 1408 1408 1408 1408 1409 1410 1410 1410 1411 1411 1411 1410 1409 1409 1409 1408 1409 1409 1409 1409 1408 1408 1408 1408 1408 1408 1408 1408 1407 1407 1407 1407 1406 1404 1403
1367 1365 1364 1365 1365 1367 1369 1371 1372 1374 1375 1376 1378 1380 1381 1383 1386 1388 1389 1391 1394 1396 1396 1397 1399 1402 1404 1406 1407 1407 1408 1409 1411 1411 1412 1411 1411 1410 1409 1409 1410 1410 1410 1410 1411 1411 1411 1409 1408 1408 1408 1408 1409 1409 1409 1409 1410 1411 1411 1411 1412 1412 1412 1412 1411 1411 1410 1409 1409 1409 1408 1408 1407 1407 1407 1407 1407 1407 1408 1408 1407 1407 1407 1406 1405 1404 1402
1373 1371 1370 1370 1369 1370 1370 1371 1373 1374 1375 1376 1378 1380 1382 1384 1386 1387 1388 1391 1393 1395 1395 1396 1399 1402 1405 1407 1408 1410 1411 1412 1413 1414 1414 1414 1413 1411 1410 1411 1412 1412 1413 1413 1414 1413 1412 1411 1410 1409 1408 1409 1410 1410 1409 1409 1410 1411 1412 1413 1413 1414 1414 1414 1414 1413 1412 1411 1410 1409 1408 1408 1407 1407 1407 1407 1407 1407 1407 1407 1406 1407 1406 1405 1403 1402 1401
1382 1380 1379 1377 1376 1375 1375 1375 1376 1377 1378 1379 1381 1383 1385 1386 1387 1387 1388 1391 1394 1395 1396 1396 1399 1403 1407 1409 1410 1411 1413 1414 1415 1415 1416 1415 1414 1412 1412 1413 1414 1415 1415 1416 1415 1414 1413 1412 1411 1410 1410 1410 1411 1411 1411 1411 1411 1412 1414 1414 1415 1415 1416 1416 1415 1414 1412 1411 1410 1409 1409 1409 1409 1408 1408 1408 1408 1407 1407 1406 1406 1406 1405 1404 1402 1401 1400
1392 1390 1388 1385 1382 1381 1382 1384 1385 1385 1384 1383 1384 1387 1389 1389 1388 1389 1391 1393 1396 1397 1397 1398 1401 1405 1408 1409 1410 1412 1414 1416 1417 1418 1418 1417 1416 1414 1414 1416 1417 1418 1418 1417 1416 1415 1414 1413 1412 1411 1412 1413 1413 1413 1414 1414 1414 1414 1415 1416 1416 1416 1416 1416 1415 1414 1413 1412 1411 1411 1411 1411 1410 1409 1408 1407 1407 1406 1406 1406 1405 1405 1404 1402 1401 1399 1399
1404 1401 1398 1394 1392 1391 1392 1392 1392 1391 1389 1388 1390 1393 1393 1391 1390 1392 1395 1397 1398 1398 1399 1401 1404 1408 1410 1411 1412 1414 1416 1416 1417 1418 1418 1418 1417 1417 1417 1419 1420 1421 1420 1420 1419 1417 1416 1415 1414 1414 1414 1415 1415 1416 1416 1416 1416 1416 1416 1416 1416 1416 1416 1416 1415 1414 1413 1413 1413 1413 1413 1412 1411 1410 1409 1408 1407 1406 1406 1406 1405 1404 1402 1401 1400 1399 1399
1414 1412 1408 1405 1404 1403 1402 1400 1399 1397 1396 1397 1399 1400 1398 1397 1397 1400 1402 1403 1401 1401 1403 1406 1408 1410 1412 1414 1415 1416 1418 1419 1419 1419 1418 1418 1419 1420 1421 1422 1424 1424 1423 1422 1421 1420 1418 1417 1417 1417 1417 1417 1417 1417 1417 1417 1417 1417 1417 1417 1416 1416 1416 1416 1416 1415 1415 1414 1414 1414 1413 1413 1412 1411 1410 1409 1409 1408 1407 1406 1405 1404 1402 1401 1400 1400 1399
1421 1419 1417 1415 1414 1413 1412 1410 1409 1408 1407 1408 1408 1407 1406 1405 1406 1407 1408 1408 1407 1407 1409 1411 1412 1414 1415 1417 1417 1418 1420 1421 1421 1421 1421 1422 1422 1423 1424 1426 1426 1425 1424 1424 1423 1421 1420 1420 1419 1419 1419 1419 1419 1418 1418 1417 1418 1418 1418 1418 1417 1416 1416 1417 1417 1417 1416 1416 1415 1415 1414 1414 1413 1413 1412 1411 1411 1410 1408 1407 1406 1404 1403 1401 1401 1401 1400
1427 1426 1424 1423 1422 1420 1419 1418 1417 1417 1417 1417 1417 1416 1415 1414 1414 1415 1415 1415 1415 1414 1415 1416 1418 1419 1420 1421 1420 1421 1422 1423 1424 1425 1426 1426 1426 1427 1428 1428 1428 1427 1426 1425 1425 1424 1423 1423 1422 1422 1421 1421 1420 1420 1419 1419 1419 1419 1419 1419 1419 1419 1419 1420 1420 1419 1418 1417 1417 1417 1416 1416 1415 1414 1414 1414 1412 1411 1409 1407 1406 1405 1404 1403 1403 1403 1402
1433 1432 1430 1429 1427 1426 1425 1425 1424 1424 1424 1424 1424 1423 1423 1422 1422 1423 1423 1423 1422 1422 1422 1422 1424 1425 1427 1426 1426 1425 1426 1427 1428 1429 1429 1430 1430 1431 1431 1431 1431 1430 1428 1427 1427 1426 1426 1426 1425 1424 1423 1423 1422 1422 1422 1421 1421 1421 1421 1421 1421 1422 1422 1422 1422 1421 1419 1419 1419 1419 1419 1418 1418 1417 1417 1416 1414 1412 1410 1409 1408 1407 1405 1405 1404 1404 1405
1439 1438 1436 1434 1433 1432 1432 1431 1430 1429 1429 1429 1429 1430 1430 1430 1430 1430 1430 1429 1429 1428 1428 1428 1429 1430 1431 1432 1431 1431 1430 1430 1431 1432 1433 1433 1434 1434 1434 1433 1434 1433 1431 1429 1429 1429 1429 1428 1427 1426 1425 1425 1424 1424 1424 1424 1424 1424 1423 1423 1423 1423 1423 1423 1423 1422 1421 1421 1420 1420 1420 1420 1420 1420 1419 1418 1416 1414 1412 1411 1410 1409 1408 1407 1407 1407 1407
1444 1443 1441 1440 1439 1438 1437 1436 1435 1434 1434 1434 1435 1436 1437 1437 1436 1436 1435 1435 1434 1433 1433 1433 1433 1434 1435 1435 1434 1434 1434 1434 1434 1435 1436 1436 1436 1436 1435 1436 1436 1436 1434 1432 1432 1432 1431 1431 1430 1429 1428 1428 1427 1427 1427 1427 1427 1426 1426 1425 1424 1424 1424 1424 1424 1424 1423 1423 1423 1422 1422 1422 1422 1422 1421 1419 1418 1417 1415 1414 1412 1411 1410 1409 1409 1409 1409
1449 1448 1446 1445 1444 1443 1441 1441 1440 1440 1440 1440 1441 1441 1441 1441 1441 1440 1440 1439 1439 1438 1438 1438 1438 1438 1438 1437 1436 1436 1437 1437 1437 1438 1439 1439 1439 1438 1438 1438 1438 1438 1437 1436 1435 1434 1434 1433 1433 1432 1431 1430 1430 1429 1429 1429 1429 1428 1428 1427 1427 1426 1426 1426 1426 1426 1426 1425 1425 1424 1423 1423 1422 1422 1421 1420 1420 1419 1418 1417 1416 1414 1413 1411 1410 1410 1410
1453 1452 1451 1449 1448 1447 1446 1445 1445 1445 1445 1445 1445 1445 1445 1445 1444 1444 1443 1443 1443 1442 1442 1442 1441 1441 1440 1439 1439 1439 1439 1439 1440 1440 1441 1441 1441 1440 1440 1440 1440 1439 1439 1439 1438 1437 1435 1435 1435 1434 1434 1433 1432 1431 1431 1431 1431 1430 1430 1429 1429 1428 1428 1428 1428 1428 1428 1428 1427 1426 1425 1424 1423 1423 1423 1423 1422 1422 1421 1420 1419 1417 1416 1414 1412 1411 1411
1456 1455 1454 1453 1452 1451 1450 1450 1449 1449 1449 1449 1449 1449 1448 1448 1447 1447 1447 1446 1446 1445 1445 1444 1444 1443 1443 1442 1442 1442 1442 1442 1442 1442 1442 1442 1442 1442 1442 1441 1441 1440 1439 1439 1438 1438 1437 1436 1436 1436 1436 1435 1434 1434 1434 1433 1433 1433 1433 1432 1431 1431 1431 1431 1431 1431 1430 1429 1428 1427 1426 1425 1425 1425 1425 1425 1424 1423 1423 1422 1421 1420 1419 1417 1415 1414 1413
1458 1457 1456 1456 1455 1455 1454 1454 1453 1453 1452 1452 1451 1451 1451 1450 1450 1450 1449 1449 1448 1448 1448 1447 1447 1446 1446 1445 1445 1445 1444 1444 1444 1444 1444 1443 1443 1443 1443 1443 1442 1441 1440 1440 1439 1439 1438 1437 1437 1436 1437 1437 1436 1436 1436 1435 1435 1435 1435 1434 1434 1433 1432 1432 1432 1432 1431 1431 1430 1429 1429 1429 1429 1429 1429 1428 1427 1426 1425 1424 1423 1422 1421 1420 1419 1417 1416
1460 1459 1459 1458 1458 1457 1457 1456 1456 1455 1455 1454 1454 1453 1453 1452 1452 1452 1451 1451 1451 1450 1450 1450 1450 1449 1448 1448 1447 1447 1447 1446 1445 1445 1444 1444 1444 1444 1444 1443 1443 1442 1441 1440 1440 1440 1439 1439 1438 1437 1437 1437 1437 1437 1437 1437 1437 1436 1436 1436 1436 1435 1433 1432 1432 1432 1432 1432 1432 1432 1431 1431 1431 1432 1431 1430 1429 1428 1427 1426 1425 1424 1423 1422 1421 1419 1418